Regional Weather Roundup
Issued by NWS

Home | Current Version | Previous Version | Graphics & Text | Print | Product List | Glossary Off
Versions: 1 2 3 4 5 6 7 8 9 10 11 12 13 14 15 16 17 18 19 20 21 22 23 24 25 26 27 28 29 30 31 32 33 34 35 36 37 38 39 40 41 42 43 44 45 46 47 48 49 50

000
ASUS43 KLSX 172307
RWRMO

WEATHER SUMMARY FOR MISSOURI
NATIONAL WEATHER SERVICE SPRINGFIELD MO
600 PM CDT TUE OCT 17 2017

NOTE: "FAIR" INDICATES FEW OR NO CLOUDS BELOW 12,000 FEET WITH NO
       SIGNIFICANT WEATHER AND/OR OBSTRUCTIONS TO VISIBILITY.
       CURRENT SKY AND/OR WEATHER CONDITIONS ARE NOT AVAILABLE FOR
       CHILLICOTHE AND FARMINGTON.

MOZ001>031-035>038-043-044-053-054-180000-
...NORTHERN AND WESTERN MISSOURI...

CITY           SKY/WX    TMP DP  RH WIND       PRES   REMARKS
KANSAS CTY INT PTCLDY    66  48  52 S10       30.07F
KANSAS C DTWN  CLEAR     71  48  43 S9G18     30.07F
LEE`S SUMMIT   CLEAR     68  46  45 S13       30.10F
ST JOSEPH      CLEAR     71  47  42 S10       30.05S
CHILLICOTHE      N/A     68  46  45 S9        30.09F
KIRKSVILLE     CLEAR     66  45  46 S8        30.11F

$$
MOZ066>068-077>081-088>096-101>105-180000-
...SOUTHWEST MISSOURI...

CITY           SKY/WX    TMP DP  RH WIND       PRES   REMARKS
SPRINGFIELD    CLEAR     68  41  37 S8        30.16F
JOPLIN         CLEAR     68  45  43 S10       30.15F
BRANSON        CLEAR     68  36  30 CALM      30.19F

$$
MOZ032>034-039>042-045>050-055>058-069>072-180000-
...CENTRAL MISSOURI...

CITY           SKY/WX    TMP DP  RH WIND       PRES   REMARKS
COLUMBIA       CLEAR     65  47  52 S7        30.15F
JEFFERSON CITY CLEAR     68  42  38 S6        30.15S
ROLLA          CLEAR     63  42  46 S9        30.18F
SEDALIA        CLEAR     66  47  50 S5        30.14F
WHITEMAN AFB   CLEAR     65  47  51 S9        30.08F
WARRENSBURG    CLEAR     66  45  45 S7        30.11F
OSAGE BEACH    CLEAR     67  44  43 MISG      30.17S

$$
MOZ051-052-059>065-180000-
...EAST CENTRAL MISSOURI...

CITY           SKY/WX    TMP DP  RH WIND       PRES   REMARKS
ST LOUIS INTL  PTCLDY    67  39  35 S7        30.18F
SPIRIT OF STL  PTCLDY    66  41  40 S3        30.17F
ST CHARLES     CLEAR     64  41  42 S7        30.17F

$$
MOZ072>076-082>087-097>100-106>115-180000-
...SOUTH CENTRAL AND SOUTHEAST MISSOURI...

CITY           SKY/WX    TMP DP  RH WIND       PRES   REMARKS
CAPE GIRARDEAU CLEAR     64  41  42 SE5       30.22F
FARMINGTON     CLEAR     63  40  42 S7        30.21F
POPLAR BLUFF   CLEAR     65  39  38 S3        30.22S
WEST PLAINS    CLEAR     66  34  30 SE6       30.21F

$$



USA.gov is the U.S. government's official web portal to all federal, state and local government web resources and services.